Regional Weather Roundup
Issued by NWS Cleveland, OH

Home | Current Version | Previous Version | Graphics & Text | Print | Product List | Glossary On
Versions: 1 2 3 4 5 6 7 8 9 10 11 12 13 14 15 16 17 18 19 20 21 22 23 24 25 26 27 28 29 30 31 32 33 34 35 36 37 38 39 40 41 42 43 44 45 46 47 48 49 50
000
ASUS41 KCLE 311602
RWRCLE
OHIO REGIONAL WEATHER ROUNDUP
NATIONAL WEATHER SERVICE CLEVELAND, OH
1200 PM EDT THU JUL 31 2014

NOTE: "FAIR" INDICATES FEW OR NO CLOUDS BELOW 12,000 FEET WITH NO
SIGNIFICANT WEATHER AND/OR OBSTRUCTIONS TO VISIBILITY.

OHZ001>008-015>018-024>027-034-035-043-044-311700-
   NORTHWEST OHIO

CITY           SKY/WX    TMP DP  RH WIND       PRES   REMARKS
DEFIANCE       SUNNY     76  55  48 SW8       30.07S
FINDLAY        SUNNY     76  53  44 SW9       30.07S
TOLEDO EXPRESS SUNNY     75  53  46 SW8       30.06S
TOLEDO EXEC    SUNNY     75  50  41 SW10      30.07R
LIMA           SUNNY     75  58  55 SW9       30.09S
$$

OHZ009>014-019>023-028>033-038-089-311700-
   NORTHEAST OHIO

CITY           SKY/WX    TMP DP  RH WIND       PRES   REMARKS
CLE-HOPKINS    SUNNY     71  51  49 W9        30.09S
CLE-LAKEFRONT  SUNNY     72  53  51 W14       30.06R
CUY CO. ARPT   MOSUNNY   72  52  49 W16       30.08R
LORAIN-ELYRIA  SUNNY     74  53  48 W8        30.08S
ASHTABULA      MOSUNNY   71  54  54 W12       30.07R
AKRON-CANTON   MOSUNNY   73  60  63 W6        30.09S
WOOSTER        PTSUNNY   73  60  63 W9        30.10R
MANSFIELD      SUNNY     73  56  54 SW5       30.10S
YOUNGSTOWN     MOSUNNY   71  58  63 SW8       30.08S
$$

OHZ042-051>053-060>062-070>072-077>081-311700-
  SOUTHWEST OHIO

CITY           SKY/WX    TMP DP  RH WIND       PRES   REMARKS
CINC-COVINGTON MOSUNNY   78  60  53 W8        30.11S
CINC-LUNKEN    SUNNY     80  60  50 SW8       30.10S
HAMILTON       SUNNY     78  65  63 VRB5      30.11S
DAYTON         MOSUNNY   78  60  53 W12       30.11S
WRIGHT-PAT AFB NOT AVBL
DAYTON GENERAL MOSUNNY   76  63  64 SW7       30.10S
WILMINGTON     SUNNY     76  63  64 W9        30.11S
$$

OHZ036-037-039>041-045>050-054>059-063>069-073>076-082>088-311700-
  CENTRAL AND SOUTHEAST OHIO

CITY           SKY/WX    TMP DP  RH WIND       PRES   REMARKS
COLUMBUS       MOSUNNY   76  62  62 S7        30.09S
OSU AIRPORT    SUNNY     76  62  62 W9        30.09F
BOLTON FIELD   NOT AVBL
RICKENBACK AFB   N/A     76  60  57 SW9       30.09F
NEWARK         SUNNY     75  62  64 W9        30.09F
MARION         SUNNY     74  60  61 W5        30.09S
LANCASTER      MOSUNNY   75  62  64 VRB7      30.11S
ZANESVILLE     MOSUNNY   73  62  68 VRB5      30.10S
NEW PHILLY     MOSUNNY   72  63  73 VRB3      30.10S
$$


USA.gov is the U.S. government's official web portal to all federal, state and local government web resources and services.